Погода в Кужмаре

Россия / Республика Марий Эл     56°50′48″N   48°19′30″E
темп.,
°C
ветер,
м/с
пор.,
м/с
влажн.,
%
обл.,
%
осадки,
мм/ч
давл.,
гПа
погр.,
м
18 апреля, вс
вс1800:00+3св33800 0.0 102539
03:00+3св35820 0.0 102465
06:00+2св26845 0.0 1024113
09:00+7св46677 0.0 1024378
12:00+9св6762100 0.0 10241101
15:00+8св8968100 0.0 1026915
18:00+6св61066100 0.0 1026877
21:00+3всв71464100 0.0 1027581
19 апреля, пн
пн1900:00+1всв6127185 0.0 1029479
03:000всв7137298 0.0 1029489
06:000всв7136383 0.0 1030529
09:00+3в810448 0.0 10311065
12:00+6в8103327 0.0 10311548
15:00+7в893080 0.0 10301665
18:00+5в6113917 0.0 1031646
21:00+2в513490 0.0 1032376
20 апреля, вт
вт2000:000в512560 0.0 1032333
03:00−1в512540 0.0 1033313
06:00+1в512500 0.0 1033368
09:00+6вюв68370 0.0 10331042
12:00+8вюв68300 0.0 10321461
15:00+9вюв68290 0.0 10301454
18:00+7вюв59400 0.0 1029328
21:00+4вюв614486 0.0 1029359
21 апреля, ср
ср2100:00+2вюв5135599 0.0 1028334
03:00+2юв6165389 0.0 1026473
06:00+2юв81851100 0.0 1025690
09:00+4юв91844100 0.1 1023848
12:00+6юв101743100 0.1 10221101
15:00+2юв101988100 1.8 1022877
18:00+2ююв91896100 2.8 1022769
21:00+2ююв81694100 3.4 1022670
22 апреля, чт
чт2200:00+2ююв71396100 0.0 1022555
03:00+2ююв61297100 0.0 1022453
06:00+3ююв61297100 0.0 1023493
09:00+4ююв61294100 0.1 1023532
12:00+5ююв61193100 0.1 1023567
15:00+7ююв5989100 0.1 1024847
18:00+6ююв6129241 0.0 1025447
21:00+4ююв5139531 0.0 1026332